Starlink 11267

operational
NORAD ID: 60994 Int'l Des: 2024-158 Owner: SPXS Country: US Constellation: starlink
LEOCIRCULAR

关于 Starlink 11267

正在加载描述...

实时位置

正在加载3D地球...

即将过境

高度历史

Altitude vs Time

uPlot chart will show altitude changes over time

两行轨道根数

1 60994U 24158E 25257.47255509 -.00000406 00000-0 15045-5 0 9997
2 60994 53.1591 70.2563 0000953 83.1595 276.9531 15.69705972 59913
Epoch: Sep 14, 2025 • Age: 19 hours

当前状态

高度 364.8 km
速度 7.69 km/s
星下点 -17.58°S, 167.47°E
发射日期 Sep 5, 2024
运行时间 1 years
类型 internet

技术详情

分类 Payload
质量 960.00 kg
干质量 910.00 kg
总质量 960.00 kg
长度 0.30 m
直径 4.10 m
跨度 29.00 m
形状 Box + pan
制造商 SPXS
平台类型 Starlink V2MD
阶段状态 In Orbit
所有者/国家 SPXS/US

大型星座

Loading constellations...